Location: Amon Carter Post Office
(32.8281°N, 97.0484°W)
Time: 22:25:03
(UTC+00:00)

Lacrosse 5 rocket - Pass Details

Date: 10 July 2022
Orbit: 456 x 628 km, 57.0° (Epoch: 08 August)

Event Time Altitude Azimuth Distance (km) Brightness Sun altitude
Rises 02:08:38 0° 307° (NW) 2,592 7.4 -6.2°
Reaches altitude 10° 02:11:00 10° 294° (WNW) 1,735 5.6 -6.6°
Maximum altitude 02:14:16 25° 238° (WSW) 1,089 3.1 -7.2°
Drops below altitude 10° 02:17:39 10° 182° (S) 1,816 3.7 -7.8°
Enters shadow 02:19:59 - 170° (S) 2,654 4.4 -8.2°
